Regional Weather Roundup
Issued by NWS Glasgow, MT

Home | Current Version | Previous Version | Text Only | Print | Product List | Glossary On
Versions: 1 2 3 4 5 6 7 8 9 10 11 12 13 14 15 16 17 18 19 20 21 22 23 24 25 26 27 28 29 30 31 32 33 34 35 36 37 38 39 40 41 42 43 44 45 46 47 48 49 50
000
ASUS45 KGGW 201315
RWRGGW
HOURLY REGIONAL WEATHER ROUNDUP FOR NORTHEAST MONTANA
NATIONAL WEATHER SERVICE GLASGOW MONTANA
700 AM MDT WED SEP 20 2017

NOTE: "FAIR" INDICATES FEW OR NO CLOUDS BELOW 12,000 FEET WITH NO
SIGNIFICANT WEATHER AND/OR OBSTRUCTIONS TO VISISBILITY.

NORTHEAST MONTANA


CITY           SKY/WX    TMP DP  RH WIND       PRES   REMARKS
GLASGOW        CLOUDY    41  34  76 SW6       29.57F
WOLF POINT     MOCLDY    37  35  92 SW6       29.59S
JORDAN           N/A     39  33  79 CALM      29.61F
WINNETT          N/A     36  30  79 NW2         N/A
SIDNEY         CLEAR     39  38  96 S6        29.62R
GLENDIVE         N/A     43  36  76 SW15      29.66R
SCOBEY           N/A     42  32  67 SW7       29.56R

FORT PECK REPORTS


CITY           SKY/WX    TMP DP  RH WIND       PRES   REMARKS
FORT PECK        N/A     50  36  58 SW12G22     N/A
THE PINES        N/A     45  37  73 SW6         N/A

SOUTHEAST MONTANA


CITY           SKY/WX    TMP DP  RH WIND       PRES   REMARKS
BILLINGS       PTCLDY    43  32  65 W14       29.69F
MILES CITY     CLEAR     39  34  82 S9        29.68S
BAKER          CLEAR     43  34  70 SW13      29.71R
LIVINGSTON     CLOUDY    44  28  53 NW9       29.71F

CENTRAL MONTANA


CITY           SKY/WX    TMP DP  RH WIND       PRES   REMARKS
HAVRE          CLEAR     36  32  85 NW5       29.53F
LEWISTOWN      CLEAR     41  28  60 SW16      29.63F
GREAT FALLS    CLOUDY    45  25  45 SW21G30   29.57F
CUT BANK       MOCLDY    39  29  67 SW16      29.50S
HELENA         CLOUDY    46  28  49 S10       29.64F
BUTTE          CLOUDY    35  28  75 VRB3      29.69F
BOZEMAN        CLOUDY    37  31  78 SE9       29.72F

WESTERN MONTANA


CITY           SKY/WX    TMP DP  RH WIND       PRES   REMARKS
MISSOULA       CLOUDY    38  37  97 CALM      29.66F
KALISPELL      NOT AVBL

NORTH DAKOTA


CITY           SKY/WX    TMP DP  RH WIND       PRES   REMARKS
WILLISTON      PTCLDY    43  40  89 SW8       29.59R
DICKINSON      CLEAR     42  38  85 SW13      29.67R
MINOT          CLEAR     48  40  73 SW10      29.59R
BISMARCK       CLEAR     44  40  85 SW5       29.71R

SOUTHERN SASKATCHEWAN


CITY           SKY/WX    TMP DP  RH WIND       PRES   REMARKS
REGINA         PTCLDY    36  34  93 SE7       29.47S
ESTEVAN        PTCLDY    37  37 100 S8        29.53R
SWIFT CURRENT  CLEAR     37  28  70 SW17G23   29.42F




USA.gov is the U.S. government's official web portal to all federal, state and local government web resources and services.